Hundvaag 1 weather for Mar 1999
Month no. 141
Obs.
Da.
Temp. Dew Point Precip. Wind
Speed
Wind gusts Cloud cover Press. Humidity Wind dir. Sunny OPT
01.03.1999 2,5   2,0     3       1  
02.03.1999 2,6   1,0     1       1  
03.03.1999 3,3   0,0     0          
04.03.1999 4,9   2,0     0       1  
05.03.1999 1,6   1,0     2       1  
06.03.1999 3,6   1,0     0          
07.03.1999 5,2   0,0     0          
08.03.1999 3,6   3,0     0       1  
09.03.1999 1,8   0,0     7       1  
10.03.1999 -0,1   0,0     0       1  
11.03.1999 -0,6   0,0     4          
12.03.1999 1,1   0,0     0          
13.03.1999 4,1   0,0     0          
14.03.1999 4,8   1,0     0       1  
15.03.1999 2,7   1,0     5       1  
16.03.1999 4,3   4,0     0          
17.03.1999 6,3   17,0     0          
18.03.1999 8,9   4,0     0          
19.03.1999 3,2   11,0     0       1  
20.03.1999 2,1   2,0     4       1  
21.03.1999 5,7   9,0     0          
22.03.1999 1,9   8,0     8       1  
23.03.1999 0,2   0,0     3       1  
24.03.1999 0,2   0,0     0          
25.03.1999 3,5   13,0     7          
26.03.1999 5,0   11,0     0          
27.03.1999 6,1   3,0     9       1  
28.03.1999 6,0   1,0     1       1  
29.03.1999 7,1   5,0     0          
30.03.1999 8,7   14,0     1       1  
31.03.1999 6,3   0,0     8       1  
Avrg/Sum 3,8   114,0     2,0       17